FENGYUN 1C DEB

Satellite information

Favourite Embed

Satellite Type and Status

DEBRISIN ORBIT

Key statistics

Satellite FENGYUN 1C DEB at a glance.

Uptime

9662

Days in orbit

Revolutions

≈ 14.2

Per day

Orbit

SSO

Sun Synchronous Orbit

Inclination

98.9

Latest

Satellite identification and parameters

Extended collection of information and parameters for FENGYUN 1C DEB.

Object identification

Identified? True

Debris? True

Object name: FENGYUN 1C DEB

International designator: 1999-025AGF

Object number (NORAD): 30468

Object ID (CCSDS): 30468

Country: PEOPLES REPUBLIC OF CHINA (PRC)

Current information (Y/N): Y

RCS size: SMALL

Orbital parameters

Period: 101.395 minutes

Inclination: 98.9249 deg

SMA: 7202.874 km

Apoapsis: 878.688 km

Periapsis: 770.79 km

RAAN: 15.8613 deg

Eccentricy: 0.0074899

Argument of periapsis: 187.4547 deg

Mean anomaly: 313.2042 deg

Mean motion: 14.20182074 rev/day

Mean motion (dot): 0.00005548 rev/day2

B* drag term: 0.0025465 1/REarth

Two-line elements (TLE)

Creation date: Oct. 22, 2025, 12:16 a.m.

Reference frame: TEME

Reference center: EARTH

Epoch: Oct. 21, 2025, 7:57 p.m. UTC

TLE line 0: 0 FENGYUN 1C DEB

TLE line 1: 1 30468U 99025AGF 25294.83138213 .00005548 00000-0 25465-2 0 9993

TLE line 2: 2 30468 98.9249 15.8613 0074899 187.4547 313.2042 14.20182074960730

Live tracking on map

Real-time ground track for satellite FENGYUN 1C DEB.

In-orbit conjunctions

A list of the most updated potential collisions computed for object FENGYUN 1C DEB.

Target Orbit TCA Probability of collision Miss distance Type
CZ-6A DEB LEO 2025-02-06 12:50:55 0.004115716 47.0 (m) DEBRIS
THORAD AGENA D DEB LEO 2024-10-20 11:52:14 0.0001791945 9.0 (m) DEBRIS
COSMOS 1503 LEO 2024-06-23 02:02:15 0.0006192261 837.0 (m) PAYLOAD

Associated space launch

Chinese polar orbiting meteorological satellite

FENGYUN 1C DEB was lifted into orbit during the mission ‘Long March 4B | Feng Yun 1C’, on board a Long March 4B space rocket.

The launch took place on May 10, 1999, 1:33 a.m. from Launch Complex 7.

For more information about the launch, click the button.

Launch to space Long March 4B | Feng Yun 1C
Long March 4B | Feng Yun 1C

Agency: N/A

Status: Launch Successful

Launch date: May 10, 1999, 1:33 a.m. UTC

Rocket: Long March 4B

Launch pad: Launch Complex 7

Location: Taiyuan Satellite Launch Center, People's Republic of China

...

Latest news about this satellite

There are no fresh news available about this satellite. Check back as we update our databases every day.


Newsletter sign-up

Weekly statistics, charts and insights to help you stay on top of the space industry.